Meteo Giornale » Osservazioni meteo Germania » Buechel

ore: 23:20 - Osservazioni Meteo Buechel
Lat. 50° 10' N Lon. 7° 4' E Alt. 478 metri s.l.m.

sereno Europe/Berlin

25 °C

Sereno

Temp. 24 Ore

20 °C

29 °C

Nord

3.7 Km/h

Dew point 17 °C

Umidità 61 %

Visibilità  10 Km

Il sole sorge alle ore 05:18

Il sole tramonta alle ore 21:46

Data e Ora Cielo e Fenomeni T °C DP °C Um. % Pres. hPa Vis. km Vento km/h
Ieri h: 23:20 sereno Sereno 25 17 61 1015 10 N 3.7
Ieri h: 22:20 sereno Sereno 25 17 61 1014 10 N 1.8
Ieri h: 21:20 sereno Sereno 27 17 54 1014 10 N 5.5
Ieri h: 20:20 sereno Sereno 28 17 51 1014 10 N 5.5
Ieri h: 19:20 sereno Sereno 29 17 48 1013 10 SE 7.4
Ieri h: 18:20 sereno Sereno 29 16 45 1014 10 S 9.3
Ieri h: 17:20 poco_nuvoloso Poco Nuvoloso 29 15 42 1014 10 S/SO 11.1
Ieri h: 16:20 poco_nuvoloso Poco Nuvoloso 29 15 42 1014 10 S/SO 16.7
Ieri h: 15:20 poco_nuvoloso Poco Nuvoloso 29 15 42 1014 10 S/SO 16.7
Ieri h: 14:20 poco_nuvoloso Poco Nuvoloso 28 16 48 1014 10 S/SO 14.8
Ieri h: 13:20 poco_nuvoloso Poco Nuvoloso 28 15 45 1014 10 SO 22.2
Ieri h: 12:20 poco_nuvoloso Poco Nuvoloso 28 16 48 1013 10 S/SE 11.1
Ieri h: 11:20 poco_nuvoloso Poco Nuvoloso 26 15 50 1013 10 S 13
Ieri h: 10:20 poco_nuvoloso Poco Nuvoloso 25 14 50 1014 10 S/SO 16.7
Ieri h: 09:20 poco_nuvoloso Poco Nuvoloso 24 14 53 1014 10 S/SO 14.8
Ieri h: 08:20 poco_nuvoloso Poco Nuvoloso 22 13 56 1013 10 S/SE 7.4
Ieri h: 07:20 nuvoloso Nuvoloso 21 13 60 1013 10 SE 9.3
Ieri h: 06:20 poco_nuvoloso Poco Nuvoloso 20 12 59 1013 10 S/SE 9.3
Ieri h: 06:00 poco_nuvoloso Poco Nuvoloso 20 12 59 1013 10 SE 9.3
Ieri h: 05:20 sereno Sereno 20 12 59 1013 10 S/SE 9.3
Ieri h: 04:20 sereno Sereno 20 12 59 1013 10 N 5.5
Ieri h: 03:20 sereno Sereno 22 13 56 1013 10 S/SE 9.3
Ieri h: 02:20 sereno Sereno 21 13 60 1013 10 SE 11.1
Ieri h: 01:20 sereno Sereno 23 13 53 1014 10 SE 9.3